CW9259 Weather Reports


Display with metric or nautical units.
time (UTC)temp
F
wind
direction
speed
MPH
gust
MPH
rain 1hr
in
rain 24hr
in
rain mn
in
humidity
%
barometer
mb
20260904041559 61 320 1.0 3.0 0.00 0.00 0.00 86 1016.2
20260904040125 61 327 1.0 3.0 0.00 0.00 0.00 86 1016.2
20260904034556 61 327 0.0 2.0 0.00 0.00 0.00 86 1016.2
20260904033130 61 321 2.0 3.0 0.00 0.00 0.00 86 1016.1
20260904031557 62 316 1.0 3.0 0.00 0.00 0.00 86 1016.2
20260904030141 62 315 0.0 1.0 0.00 0.00 0.00 86 1016.2
20260904024558 61 322 1.0 3.0 0.00 0.00 0.00 85 1016.3
20260904023127 62 320 0.0 2.0 0.00 0.00 0.00 85 1016.3
20260904021601 62 321 2.0 3.0 0.00 0.00 0.00 84 1016.2
20260904020134 62 317 1.0 3.0 0.00 0.00 0.00 84 1016.3
20260904014641 62 321 1.0 3.0 0.00 0.00 0.00 84 1016.2
20260904013123 63 321 1.0 3.0 0.00 0.00 0.00 83 1016.3
20260904011556 63 322 1.0 4.0 0.00 0.00 0.00 82 1016.2
20260904010130 63 317 1.0 3.0 0.00 0.00 0.00 82 1016.1
20260904004602 63 319 1.0 3.0 0.00 0.00 0.00 81 1016.1
20260904003140 64 318 2.0 3.0 0.00 0.00 0.00 81 1016.2
20260904001600 64 323 1.0 3.0 0.00 0.00 0.00 81 1016.3
20260904000143 64 306 2.0 4.0 0.00 0.00 0.00 81 1016.3
20260903234556 64 279 0.0 4.0 0.00 0.00 0.00 82 1016.3
20260903233136 64 319 1.0 3.0 0.00 0.00 0.00 81 1016.4
20260903231612 64 315 0.0 3.0 0.00 0.00 0.00 81 1016.3
20260903230127 64 315 1.0 2.0 0.00 0.00 0.00 81 1016.3
20260903224559 65 315 1.0 2.0 0.00 0.00 0.00 80 1016.3
20260903223134 65 315 0.0 2.0 0.00 0.00 0.00 79 1016.3
20260903221556 66 321 2.0 4.0 0.00 0.00 0.00 77 1016.3
20260903220140 66 315 1.0 4.0 0.00 0.00 0.00 78 1016.2
20260903214601 65 322 2.0 5.0 0.00 0.00 0.00 78 1016.1
20260903213127 65 292 0.0 3.0 0.00 0.00 0.00 79 1016.1
20260903211556 66 306 1.0 3.0 0.00 0.00 0.00 79 1016.1
20260903210148 66 308 1.0 3.0 0.00 0.00 0.00 78 1016.1
20260903204557 66 308 1.0 2.0 0.00 0.00 0.00 78 1016.1
20260903203159 67 308 1.0 3.0 0.00 0.00 0.00 77 1016.1
20260903201559 67 297 0.0 2.0 0.00 0.00 0.00 78 1016.1
20260903200117 67 297 0.0 2.0 0.00 0.00 0.00 77 1016.0
20260903194557 68 297 0.0 2.0 0.00 0.00 0.00 76 1015.9
20260903193134 69 297 0.0 2.0 0.00 0.00 0.00 76 1015.7
20260903191555 69 297 1.0 2.0 0.00 0.00 0.00 74 1015.6
20260903190145 70 297 0.0 0.0 0.00 0.00 0.00 73 1015.6
20260903184556 72 300 0.0 2.0 0.00 0.00 0.00 71 1015.5
20260903183137 73 298 0.0 1.0 0.00 0.00 0.00 71 1015.3
20260903181559 74 298 0.0 3.0 0.00 0.00 0.00 69 1015.1
20260903180129 76 299 1.0 2.0 0.00 0.00 0.00 66 1015.0
20260903174557 78 298 0.0 3.0 0.00 0.00 0.00 64 1015.0
20260903173134 80 298 0.0 3.0 0.00 0.00 0.00 63 1014.9
20260903171558 83 144 0.0 2.0 0.00 0.00 0.00 60 1014.9
20260903170145 85 145 0.0 2.0 0.00 0.00 0.00 55 1014.7
20260903164600 86 147 0.0 2.0 0.00 0.00 0.00 53 1014.6
20260903163138 86 147 0.0 1.0 0.00 0.00 0.00 54 1014.6
20260903161603 86 148 0.0 2.0 0.00 0.00 0.00 50 1014.6
20260903160142 88 147 0.0 2.0 0.00 0.00 0.00 51 1014.6
20260903154557 89 147 0.0 3.0 0.00 0.00 0.00 44 1014.8
20260903153144 89 146 2.0 5.0 0.00 0.00 0.00 44 1014.9
20260903151559 88 163 0.0 5.0 0.00 0.00 0.00 41 1015.0
20260903150142 89 66 2.0 7.0 0.00 0.00 0.00 40 1015.0
20260903144557 90 119 0.0 5.0 0.00 0.00 0.00 40 1015.2
20260903143135 89 120 0.0 7.0 0.00 0.00 0.00 40 1015.3
20260903141600 89 201 0.0 7.0 0.00 0.00 0.00 41 1015.3
20260903140134 88 221 3.0 6.0 0.00 0.00 0.00 42 1015.5
20260903134559 88 128 4.0 10.0 0.00 0.00 0.00 43 1015.6
20260903133126 88 27 2.0 8.0 0.00 0.00 0.00 44 1015.6
20260903131558 88 145 2.0 5.0 0.00 0.00 0.00 43 1015.7
20260903130123 87 184 4.0 10.0 0.00 0.00 0.00 44 1015.9
20260903124603 87 156 2.0 9.0 0.00 0.00 0.00 48 1015.8
20260903123137 87 121 3.0 9.0 0.00 0.00 0.00 47 1015.8
20260903121556 86 130 6.0 11.0 0.00 0.00 0.00 45 1016.1
20260903120140 86 74 2.0 9.0 0.00 0.00 0.00 48 1016.0
20260903114617 86 144 5.0 10.0 0.00 0.00 0.00 48 1016.3
20260903113140 85 32 5.0 9.0 0.00 0.00 0.00 47 1016.3
20260903111616 85 128 1.0 8.0 0.00 0.00 0.00 51 1016.3
20260903110131 85 150 2.0 9.0 0.00 0.00 0.00 50 1016.5
20260903104606 85 144 4.0 9.0 0.00 0.00 0.00 53 1016.7
20260903103124 84 129 4.0 7.0 0.00 0.00 0.00 51 1017.0
20260903101600 84 101 4.0 7.0 0.00 0.00 0.00 51 1017.3
20260903100141 84 123 4.0 8.0 0.00 0.00 0.00 51 1017.3
20260903094602 83 88 1.0 8.0 0.00 0.00 0.00 54 1017.4
20260903093130 81 195 4.0 6.0 0.00 0.00 0.00 54 1017.5
20260903091558 81 95 3.0 5.0 0.00 0.00 0.00 55 1017.6
20260903090128 79 103 2.0 7.0 0.00 0.00 0.00 61 1017.7
20260903084558 78 161 0.0 7.0 0.00 0.00 0.00 60 1017.6
20260903083104 78 130 2.0 6.0 0.00 0.00 0.00 66 1017.6
20260903081558 76 136 0.0 6.0 0.00 0.00 0.00 64 1017.6
20260903080129 75 51 0.0 4.0 0.00 0.00 0.00 62 1017.5
20260903074557 74 32 1.0 3.0 0.00 0.00 0.00 65 1017.3
20260903073139 73 10 0.0 2.0 0.00 0.00 0.00 64 1017.2
20260903071626 71 355 1.0 2.0 0.00 0.00 0.00 66 1017.2
20260903070145 70 355 0.0 3.0 0.00 0.00 0.00 67 1017.2
20260903064605 68 345 1.0 3.0 0.00 0.00 0.00 70 1017.2
20260903063119 66 9 3.0 5.0 0.00 0.00 0.00 72 1017.1
20260903061607 64 5 1.0 3.0 0.00 0.00 0.00 82 1016.8
20260903054558 61 360 0.0 0.0 0.00 0.00 0.00 87 1016.6
20260903053130 60 321 0.0 0.0 0.00 0.00 0.00 89 1016.4
20260903051558 60 321 0.0 0.0 0.00 0.00 0.00 91 1016.3
20260903050141 60 321 0.0 0.0 0.00 0.00 0.00 90 1016.2
20260903044603 60 321 0.0 0.0 0.00 0.00 0.00 90 1016.0